This is the latest recevied weather packets stored in our database for station/object VE3MNX. If no packets are shown the sender has not sent any weather packets the latest 10 day(s).
| Time | Temp. | Humidity | Pressure | Rain* | Wind** | Luminosity | Snow |
|---|---|---|---|---|---|---|---|
| 1777906397 | 11.67° C | 90% | 1004.2 hPa | 0 mm | - | - | - |
| 1777905495 | 11.11° C | 89% | 1004.3 hPa | 0 mm | - | - | - |
| 1777904596 | 11.67° C | 91% | 1004.4 hPa | 0 mm | - | - | - |
| 1777903696 | 11.67° C | 89% | 1004.4 hPa | 0 mm | - | - | - |
| 1777902796 | 11.67° C | 88% | 1004.7 hPa | 0 mm | - | - | - |
| 1777901895 | 11.67° C | 89% | 1004.7 hPa | 0 mm | - | - | - |
| 1777900996 | 11.67° C | 86% | 1004.4 hPa | 0 mm | - | - | - |
| 1777900096 | 12.22° C | 85% | 1004.7 hPa | 0 mm | - | - | - |
| 1777899196 | 11.67° C | 87% | 1005.1 hPa | 0 mm | - | - | - |
| 1777898296 | 11.11° C | 86% | 1005.1 hPa | 0 mm | - | - | - |
| 1777897397 | 11.11° C | 87% | 1005.1 hPa | 0 mm | - | - | - |
| 1777896495 | 11.11° C | 87% | 1005.1 hPa | 0 mm | - | - | - |
| 1777895598 | 11.11° C | 88% | 1005.1 hPa | 0 mm | - | - | - |
| 1777894695 | 10.56° C | 87% | 1004.7 hPa | 0 mm | - | - | - |
| 1777893802 | 10.56° C | 89% | 1004.7 hPa | 0 mm | - | - | - |
| 1777892896 | 10.56° C | 89% | 1004.7 hPa | 0 mm | - | - | - |
| 1777891997 | 10° C | 89% | 1004.7 hPa | 0 mm | - | - | - |
| 1777891095 | 10° C | 89% | 1004.4 hPa | 0 mm | - | - | - |
| 1777890197 | 10° C | 89% | 1004.4 hPa | 0 mm | - | - | - |
| 1777889295 | 10° C | 89% | 1004.4 hPa | 0 mm | - | - | - |
| 1777888398 | 10° C | 88% | 1004.4 hPa | 0 mm | - | - | - |
| 1777887496 | 9.44° C | 90% | 1004.7 hPa | 0 mm | - | - | - |
| 1777886598 | 9.44° C | 91% | 1005.1 hPa | 0 mm | - | - | - |
| 1777885695 | 9.44° C | 92% | 1005.1 hPa | 0 mm | - | - | - |
| 1777884798 | 9.44° C | 91% | 1005.1 hPa | 0 mm | - | - | - |
* Rain latest hour (hover to see other rain measurements)
** Current wind speed in m/s (hover to see current wind gust speed)